Time,TemperatureF,DewpointF,PressureIn,WindDirection,WindDirectionDegrees,WindSpeedMPH,WindSpeedGustMPH,Humidity,HourlyPrecipIn,Conditions,Clouds,dailyrainin,SoftwareType,DateUTC
2013-02-15 00:00:00,39.8,34.1,30.07,North,360,8.0,10.0,80,0.00,,---,0.00,VWS V14.01,2013-02-15 05:00:00,
2013-02-15 00:01:00,39.8,34.1,30.07,North,360,9.0,10.0,80,0.00,,---,0.00,VWS V14.01,2013-02-15 05:01:00,
2013-02-15 00:06:00,39.8,34.1,30.07,North,360,8.0,10.0,80,0.00,,---,0.00,VWS V14.01,2013-02-15 05:06:00,
2013-02-15 00:11:00,39.7,34.4,30.07,North,360,7.0,10.0,81,0.00,,---,0.00,VWS V14.01,2013-02-15 05:11:00,
2013-02-15 00:16:00,39.6,34.3,30.08,North,360,6.0,10.0,81,0.00,,---,0.00,VWS V14.01,2013-02-15 05:16:00,
2013-02-15 00:21:00,39.5,34.2,30.08,North,360,5.0,10.0,81,0.00,,---,0.00,VWS V14.01,2013-02-15 05:21:00,
2013-02-15 00:26:00,39.5,34.5,30.08,North,360,7.0,11.0,82,0.00,,---,0.00,VWS V14.01,2013-02-15 05:26:00,
2013-02-15 00:31:00,39.5,34.5,30.08,North,360,5.0,11.0,82,0.00,,---,0.00,VWS V14.01,2013-02-15 05:31:00,
2013-02-15 00:36:00,39.5,34.5,30.08,North,360,7.0,11.0,82,0.00,,---,0.00,VWS V14.01,2013-02-15 05:36:00,
2013-02-15 00:41:00,39.7,34.7,30.08,North,360,5.0,11.0,82,0.00,,---,0.00,VWS V14.01,2013-02-15 05:41:00,
2013-02-15 00:46:00,39.7,34.7,30.08,North,360,5.0,11.0,82,0.00,,---,0.00,VWS V14.01,2013-02-15 05:46:00,
2013-02-15 00:51:00,39.8,34.8,30.08,North,360,7.0,11.0,82,0.00,,---,0.00,VWS V14.01,2013-02-15 05:51:00,
2013-02-15 00:56:00,39.9,34.9,30.08,North,360,7.0,11.0,82,0.00,,---,0.00,VWS V14.01,2013-02-15 05:56:00,
2013-02-15 01:01:00,39.8,34.5,30.08,North,360,5.0,11.0,81,0.00,,---,0.00,VWS V14.01,2013-02-15 06:01:00,
2013-02-15 01:07:00,39.9,34.9,30.08,North,360,4.0,10.0,82,0.00,,---,0.00,VWS V14.01,2013-02-15 06:07:00,
2013-02-15 01:12:00,39.9,34.9,30.08,North,360,4.0,10.0,82,0.00,,---,0.00,VWS V14.01,2013-02-15 06:12:00,
2013-02-15 01:17:00,39.9,34.9,30.08,North,360,3.0,10.0,82,0.00,,---,0.00,VWS V14.01,2013-02-15 06:17:00,
2013-02-15 01:22:00,39.9,34.9,30.08,North,360,2.0,10.0,82,0.00,,---,0.00,VWS V14.01,2013-02-15 06:22:00,
2013-02-15 01:27:00,39.9,34.9,30.08,North,360,3.0,10.0,82,0.00,,---,0.00,VWS V14.01,2013-02-15 06:27:00,
2013-02-15 01:32:00,39.9,34.9,30.08,North,360,3.0,10.0,82,0.00,,---,0.00,VWS V14.01,2013-02-15 06:32:00,
2013-02-15 01:37:00,39.8,34.8,30.08,North,360,6.0,10.0,82,0.00,,---,0.00,VWS V14.01,2013-02-15 06:37:00,
2013-02-15 01:42:00,39.9,34.9,30.09,North,360,5.0,10.0,82,0.00,,---,0.00,VWS V14.01,2013-02-15 06:42:00,
2013-02-15 01:47:00,39.9,34.9,30.08,North,360,4.0,10.0,82,0.00,,---,0.00,VWS V14.01,2013-02-15 06:47:00,
2013-02-15 01:52:00,39.9,34.9,30.08,North,360,2.0,10.0,82,0.00,,---,0.00,VWS V14.01,2013-02-15 06:52:00,
2013-02-15 01:57:00,39.8,34.8,30.08,North,360,5.0,10.0,82,0.00,,---,0.00,VWS V14.01,2013-02-15 06:57:00,
2013-02-15 02:02:00,39.7,34.7,30.08,North,360,5.0,5.0,82,0.00,,---,0.00,VWS V14.01,2013-02-15 07:02:00,
2013-02-15 02:08:00,39.6,34.6,30.08,North,360,4.0,7.0,82,0.00,,---,0.00,VWS V14.01,2013-02-15 07:08:00,
2013-02-15 02:13:00,39.4,34.7,30.08,North,360,4.0,7.0,83,0.00,,---,0.00,VWS V14.01,2013-02-15 07:13:00,
2013-02-15 02:18:00,39.3,34.6,30.08,North,360,5.0,7.0,83,0.00,,---,0.00,VWS V14.01,2013-02-15 07:18:00,
2013-02-15 02:23:00,39.2,34.5,30.08,North,360,5.0,7.0,83,0.00,,---,0.00,VWS V14.01,2013-02-15 07:23:00,
2013-02-15 02:28:00,39.0,34.3,30.08,North,360,3.0,7.0,83,0.00,,---,0.00,VWS V14.01,2013-02-15 07:28:00,
2013-02-15 02:33:00,38.9,34.2,30.08,North,360,5.0,7.0,83,0.00,,---,0.00,VWS V14.01,2013-02-15 07:33:00,
2013-02-15 02:38:00,38.8,34.4,30.07,North,360,5.0,7.0,84,0.00,,---,0.00,VWS V14.01,2013-02-15 07:38:00,
2013-02-15 02:43:00,38.8,34.4,30.08,North,360,6.0,9.0,84,0.00,,---,0.00,VWS V14.01,2013-02-15 07:43:00,
2013-02-15 02:48:00,38.8,34.4,30.08,North,360,4.0,9.0,84,0.00,,---,0.00,VWS V14.01,2013-02-15 07:48:00,
2013-02-15 02:53:00,38.6,34.2,30.08,North,360,4.0,9.0,84,0.00,,---,0.00,VWS V14.01,2013-02-15 07:53:00,
2013-02-15 02:58:00,38.6,34.2,30.07,North,360,3.0,9.0,84,0.00,,---,0.00,VWS V14.01,2013-02-15 07:58:00,
2013-02-15 03:03:00,38.4,34.3,30.07,North,360,2.0,3.0,85,0.00,,---,0.00,VWS V14.01,2013-02-15 08:03:00,
2013-02-15 03:08:00,38.3,34.2,30.07,North,360,3.0,3.0,85,0.00,,---,0.00,VWS V14.01,2013-02-15 08:08:00,
2013-02-15 03:13:00,38.2,34.1,30.07,North,360,3.0,4.0,85,0.00,,---,0.00,VWS V14.01,2013-02-15 08:13:00,
2013-02-15 03:18:00,38.1,34.0,30.07,North,360,3.0,4.0,85,0.00,,---,0.00,VWS V14.01,2013-02-15 08:18:00,
2013-02-15 03:23:00,38.0,33.9,30.07,North,360,2.0,4.0,85,0.00,,---,0.00,VWS V14.01,2013-02-15 08:23:00,
2013-02-15 03:28:00,38.0,33.9,30.07,North,360,3.0,4.0,85,0.00,,---,0.00,VWS V14.01,2013-02-15 08:28:00,
2013-02-15 03:33:00,38.0,34.2,30.07,North,360,3.0,4.0,86,0.00,,---,0.00,VWS V14.01,2013-02-15 08:33:00,
2013-02-15 03:39:00,38.2,34.4,30.07,North,360,2.0,4.0,86,0.00,,---,0.00,VWS V14.01,2013-02-15 08:39:00,
2013-02-15 03:44:00,38.1,34.3,30.07,North,360,2.0,4.0,86,0.00,,---,0.00,VWS V14.01,2013-02-15 08:44:00,
2013-02-15 03:49:00,38.0,34.2,30.07,North,360,2.0,4.0,86,0.00,,---,0.00,VWS V14.01,2013-02-15 08:49:00,
2013-02-15 03:54:00,38.0,34.2,30.07,North,360,2.0,4.0,86,0.00,,---,0.00,VWS V14.01,2013-02-15 08:54:00,
2013-02-15 03:59:00,38.0,34.2,30.07,North,360,1.0,4.0,86,0.00,,---,0.00,VWS V14.01,2013-02-15 08:59:00,
2013-02-15 04:04:00,38.0,34.2,30.07,North,360,2.0,4.0,86,0.00,,---,0.00,VWS V14.01,2013-02-15 09:04:00,
2013-02-15 04:09:00,38.1,34.3,30.07,North,360,2.0,5.0,86,0.00,,---,0.00,VWS V14.01,2013-02-15 09:09:00,
2013-02-15 04:14:00,38.2,34.4,30.07,North,360,3.0,5.0,86,0.00,,---,0.00,VWS V14.01,2013-02-15 09:14:00,
2013-02-15 04:19:00,38.2,34.4,30.07,North,360,4.0,5.0,86,0.00,,---,0.00,VWS V14.01,2013-02-15 09:19:00,
2013-02-15 04:24:00,38.3,34.5,30.07,North,360,3.0,6.0,86,0.00,,---,0.00,VWS V14.01,2013-02-15 09:24:00,
2013-02-15 04:29:00,38.2,34.4,30.07,North,360,4.0,6.0,86,0.00,,---,0.00,VWS V14.01,2013-02-15 09:29:00,
2013-02-15 04:34:00,38.2,34.4,30.07,North,360,4.0,7.0,86,0.00,,---,0.00,VWS V14.01,2013-02-15 09:34:00,
2013-02-15 04:39:00,38.2,34.4,30.07,North,360,5.0,7.0,86,0.00,,---,0.00,VWS V14.01,2013-02-15 09:39:00,
2013-02-15 04:44:00,38.1,34.3,30.07,North,360,4.0,7.0,86,0.00,,---,0.00,VWS V14.01,2013-02-15 09:44:00,
2013-02-15 04:50:00,38.0,34.2,30.07,North,360,4.0,7.0,86,0.00,,---,0.00,VWS V14.01,2013-02-15 09:50:00,
2013-02-15 04:55:00,38.0,34.2,30.07,North,360,3.0,7.0,86,0.00,,---,0.00,VWS V14.01,2013-02-15 09:55:00,
2013-02-15 05:00:00,37.9,34.4,30.07,North,360,2.0,7.0,87,0.00,,---,0.00,VWS V14.01,2013-02-15 10:00:00,
2013-02-15 05:05:00,37.9,34.1,30.07,North,360,0.0,3.0,86,0.00,,---,0.00,VWS V14.01,2013-02-15 10:05:00,
2013-02-15 05:10:00,37.9,34.1,30.07,North,360,3.0,3.0,86,0.00,,---,0.00,VWS V14.01,2013-02-15 10:10:00,
2013-02-15 05:15:00,37.8,34.0,30.07,North,360,2.0,3.0,86,0.00,,---,0.00,VWS V14.01,2013-02-15 10:15:00,
2013-02-15 05:20:00,37.6,34.1,30.07,North,360,1.0,3.0,87,0.00,,---,0.00,VWS V14.01,2013-02-15 10:20:00,
2013-02-15 05:25:00,37.4,33.9,30.07,North,360,3.0,3.0,87,0.00,,---,0.00,VWS V14.01,2013-02-15 10:25:00,
2013-02-15 05:30:00,37.4,33.9,30.07,North,360,2.0,3.0,87,0.00,,---,0.00,VWS V14.01,2013-02-15 10:30:00,
2013-02-15 05:35:00,37.3,33.8,30.07,North,360,3.0,4.0,87,0.00,,---,0.00,VWS V14.01,2013-02-15 10:35:00,
2013-02-15 05:41:00,37.3,34.1,30.07,North,360,3.0,5.0,88,0.00,,---,0.00,VWS V14.01,2013-02-15 10:41:00,
2013-02-15 05:46:00,37.1,33.6,30.07,North,360,2.0,5.0,87,0.00,,---,0.00,VWS V14.01,2013-02-15 10:46:00,
2013-02-15 05:51:00,36.9,33.4,30.07,North,360,1.0,5.0,87,0.00,,---,0.00,VWS V14.01,2013-02-15 10:51:00,
2013-02-15 05:56:00,36.8,33.6,30.06,North,360,2.0,5.0,88,0.00,,---,0.00,VWS V14.01,2013-02-15 10:56:00,
2013-02-15 06:01:00,36.6,33.4,30.07,North,360,2.0,5.0,88,0.00,,---,0.00,VWS V14.01,2013-02-15 11:01:00,
2013-02-15 06:06:00,36.5,33.3,30.07,North,360,2.0,3.0,88,0.00,,---,0.00,VWS V14.01,2013-02-15 11:06:00,
2013-02-15 06:11:00,36.5,33.6,30.07,North,360,3.0,4.0,89,0.00,,---,0.00,VWS V14.01,2013-02-15 11:11:00,
2013-02-15 06:16:00,36.4,33.5,30.07,North,360,2.0,5.0,89,0.00,,---,0.00,VWS V14.01,2013-02-15 11:16:00,
2013-02-15 06:21:00,36.3,33.4,30.07,North,360,3.0,5.0,89,0.00,,---,0.00,VWS V14.01,2013-02-15 11:21:00,
2013-02-15 06:26:00,36.2,33.3,30.07,North,360,1.0,5.0,89,0.00,,---,0.00,VWS V14.01,2013-02-15 11:26:00,
2013-02-15 06:31:00,36.1,33.2,30.08,North,360,3.0,5.0,89,0.00,,---,0.00,VWS V14.01,2013-02-15 11:31:00,
2013-02-15 06:36:00,36.2,33.3,30.08,North,360,2.0,5.0,89,0.00,,---,0.00,VWS V14.01,2013-02-15 11:36:00,
2013-02-15 06:41:00,36.0,33.1,30.08,North,360,0.0,5.0,89,0.00,,---,0.00,VWS V14.01,2013-02-15 11:41:00,
2013-02-15 06:46:00,35.7,32.5,30.08,North,360,0.0,5.0,88,0.00,,---,0.00,VWS V14.01,2013-02-15 11:46:00,
2013-02-15 06:51:00,35.4,32.2,30.08,North,360,0.0,5.0,88,0.00,,---,0.00,VWS V14.01,2013-02-15 11:51:00,
2013-02-15 06:57:00,35.2,32.3,30.08,North,360,0.0,5.0,89,0.00,,---,0.00,VWS V14.01,2013-02-15 11:57:00,
2013-02-15 07:02:00,35.1,32.2,30.08,North,360,0.0,5.0,89,0.00,,---,0.00,VWS V14.01,2013-02-15 12:02:00,
2013-02-15 07:07:00,35.1,32.5,30.08,North,360,0.0,0.0,90,0.00,,---,0.00,VWS V14.01,2013-02-15 12:07:00,
2013-02-15 07:12:00,35.0,32.1,30.08,North,360,0.0,0.0,89,0.00,,---,0.00,VWS V14.01,2013-02-15 12:12:00,
2013-02-15 07:17:00,34.7,31.8,30.08,North,360,0.0,0.0,89,0.00,,---,0.00,VWS V14.01,2013-02-15 12:17:00,
2013-02-15 07:22:00,34.4,31.5,30.08,North,360,0.0,0.0,89,0.00,,---,0.00,VWS V14.01,2013-02-15 12:22:00,
2013-02-15 07:27:00,34.3,31.4,30.08,North,360,0.0,0.0,89,0.00,,---,0.00,VWS V14.01,2013-02-15 12:27:00,
2013-02-15 07:32:00,34.6,32.0,30.08,North,360,0.0,0.0,90,0.00,,---,0.00,VWS V14.01,2013-02-15 12:32:00,
2013-02-15 07:37:00,34.4,31.5,30.09,North,360,0.0,0.0,89,0.00,,---,0.00,VWS V14.01,2013-02-15 12:37:00,
2013-02-15 07:42:00,34.5,31.9,30.09,North,360,0.0,0.0,90,0.00,,---,0.00,VWS V14.01,2013-02-15 12:42:00,
2013-02-15 07:47:00,34.8,32.2,30.09,North,360,0.0,0.0,90,0.00,,---,0.00,VWS V14.01,2013-02-15 12:47:00,
2013-02-15 07:52:00,35.2,32.6,30.09,North,360,0.0,0.0,90,0.00,,---,0.00,VWS V14.01,2013-02-15 12:52:00,
2013-02-15 07:57:00,35.6,32.7,30.09,North,360,0.0,0.0,89,0.00,,---,0.00,VWS V14.01,2013-02-15 12:57:00,
2013-02-15 08:02:00,36.0,33.1,30.10,North,360,0.0,0.0,89,0.00,,---,0.00,VWS V14.01,2013-02-15 13:02:00,
2013-02-15 08:07:00,36.5,33.6,30.10,North,360,3.0,3.0,89,0.00,,---,0.00,VWS V14.01,2013-02-15 13:07:00,
2013-02-15 08:12:00,36.9,33.7,30.10,North,360,4.0,5.0,88,0.00,,---,0.00,VWS V14.01,2013-02-15 13:12:00,
2013-02-15 08:18:00,37.4,34.2,30.10,North,360,4.0,5.0,88,0.00,,---,0.00,VWS V14.01,2013-02-15 13:18:00,
2013-02-15 08:23:00,37.6,34.1,30.10,North,360,5.0,6.0,87,0.00,,---,0.00,VWS V14.01,2013-02-15 13:23:00,
2013-02-15 08:28:00,37.8,34.0,30.11,North,360,4.0,6.0,86,0.00,,---,0.00,VWS V14.01,2013-02-15 13:28:00,
2013-02-15 08:33:00,37.8,34.0,30.10,North,360,3.0,6.0,86,0.00,,---,0.00,VWS V14.01,2013-02-15 13:33:00,
2013-02-15 08:38:00,37.9,34.1,30.11,North,360,4.0,6.0,86,0.00,,---,0.00,VWS V14.01,2013-02-15 13:38:00,
2013-02-15 08:43:00,38.2,34.4,30.10,North,360,4.0,6.0,86,0.00,,---,0.00,VWS V14.01,2013-02-15 13:43:00,
2013-02-15 08:48:00,38.4,34.3,30.10,North,360,4.0,6.0,85,0.00,,---,0.00,VWS V14.01,2013-02-15 13:48:00,
2013-02-15 08:53:00,38.7,34.6,30.11,North,360,4.0,6.0,85,0.00,,---,0.00,VWS V14.01,2013-02-15 13:53:00,
2013-02-15 08:58:00,39.1,34.7,30.11,North,360,3.0,6.0,84,0.00,,---,0.00,VWS V14.01,2013-02-15 13:58:00,
2013-02-15 09:03:00,39.4,34.7,30.11,North,360,1.0,2.0,83,0.00,,---,0.00,VWS V14.01,2013-02-15 14:03:00,
2013-02-15 09:08:00,39.8,35.1,30.11,North,360,2.0,4.0,83,0.00,,---,0.00,VWS V14.01,2013-02-15 14:08:00,
2013-02-15 09:13:00,40.4,35.3,30.11,North,360,3.0,5.0,82,0.00,,---,0.00,VWS V14.01,2013-02-15 14:13:00,
2013-02-15 09:18:00,40.8,35.1,30.11,North,360,4.0,5.0,80,0.00,,---,0.00,VWS V14.01,2013-02-15 14:18:00,
2013-02-15 09:23:00,41.1,35.1,30.11,North,360,4.0,6.0,79,0.00,,---,0.00,VWS V14.01,2013-02-15 14:23:00,
2013-02-15 09:28:00,41.3,35.0,30.10,North,360,6.0,7.0,78,0.00,,---,0.00,VWS V14.01,2013-02-15 14:28:00,
2013-02-15 09:33:00,41.6,35.6,30.11,North,360,3.0,7.0,79,0.00,,---,0.00,VWS V14.01,2013-02-15 14:33:00,
2013-02-15 09:39:00,42.1,36.1,30.10,North,360,4.0,7.0,79,0.00,,---,0.00,VWS V14.01,2013-02-15 14:39:00,
2013-02-15 09:44:00,42.7,36.3,30.10,North,360,2.0,7.0,78,0.00,,---,0.00,VWS V14.01,2013-02-15 14:44:00,
2013-02-15 09:49:00,43.3,36.9,30.10,North,360,5.0,7.0,78,0.00,,---,0.00,VWS V14.01,2013-02-15 14:49:00,
2013-02-15 09:54:00,43.7,36.6,30.10,North,360,4.0,7.0,76,0.00,,---,0.00,VWS V14.01,2013-02-15 14:54:00,
2013-02-15 09:59:00,44.0,36.6,30.10,North,360,3.0,7.0,75,0.00,,---,0.00,VWS V14.01,2013-02-15 14:59:00,
2013-02-15 10:04:00,44.5,36.7,30.10,North,360,3.0,5.0,74,0.00,,---,0.00,VWS V14.01,2013-02-15 15:04:00,
2013-02-15 10:09:00,45.2,37.1,30.10,North,360,4.0,6.0,73,0.00,,---,0.00,VWS V14.01,2013-02-15 15:09:00,
2013-02-15 10:14:00,45.7,37.2,30.10,North,360,4.0,9.0,72,0.00,,---,0.00,VWS V14.01,2013-02-15 15:14:00,
2013-02-15 10:19:00,46.3,37.4,30.10,North,360,4.0,9.0,71,0.00,,---,0.00,VWS V14.01,2013-02-15 15:19:00,
2013-02-15 10:24:00,46.9,37.3,30.10,North,360,6.0,9.0,69,0.00,,---,0.00,VWS V14.01,2013-02-15 15:24:00,
2013-02-15 10:29:00,47.1,37.5,30.10,North,360,1.0,10.0,69,0.00,,---,0.00,VWS V14.01,2013-02-15 15:29:00,
2013-02-15 10:34:00,47.5,37.8,30.09,North,360,4.0,10.0,69,0.00,,---,0.00,VWS V14.01,2013-02-15 15:34:00,
2013-02-15 10:39:00,48.3,37.5,30.10,North,360,1.0,10.0,66,0.00,,---,0.00,VWS V14.01,2013-02-15 15:39:00,
2013-02-15 10:44:00,49.1,37.9,30.09,North,360,4.0,10.0,65,0.00,,---,0.00,VWS V14.01,2013-02-15 15:44:00,
2013-02-15 10:50:00,49.7,37.6,30.09,North,360,5.0,10.0,63,0.00,,---,0.00,VWS V14.01,2013-02-15 15:50:00,
2013-02-15 10:55:00,49.9,37.4,30.09,North,360,4.0,10.0,62,0.00,,---,0.00,VWS V14.01,2013-02-15 15:55:00,
2013-02-15 11:00:00,50.3,37.4,30.09,North,360,4.0,10.0,61,0.00,,---,0.00,VWS V14.01,2013-02-15 16:00:00,
2013-02-15 11:05:00,50.7,37.3,30.09,North,360,10.0,11.0,60,0.00,,---,0.00,VWS V14.01,2013-02-15 16:05:00,
2013-02-15 11:10:00,50.9,38.0,30.09,North,360,10.0,11.0,61,0.00,,---,0.00,VWS V14.01,2013-02-15 16:10:00,
2013-02-15 11:15:00,50.9,37.1,30.09,North,360,7.0,11.0,59,0.00,,---,0.00,VWS V14.01,2013-02-15 16:15:00,
2013-02-15 11:20:00,51.1,37.7,30.09,North,360,5.0,12.0,60,0.00,,---,0.00,VWS V14.01,2013-02-15 16:20:00,
2013-02-15 11:25:00,51.4,38.0,30.09,North,360,3.0,12.0,60,0.00,,---,0.00,VWS V14.01,2013-02-15 16:25:00,
2013-02-15 11:30:00,51.8,38.4,30.09,North,360,2.0,12.0,60,0.00,,---,0.00,VWS V14.01,2013-02-15 16:30:00,
2013-02-15 11:35:00,52.3,38.0,30.08,North,360,3.0,12.0,58,0.00,,---,0.00,VWS V14.01,2013-02-15 16:35:00,
2013-02-15 11:40:00,52.6,38.3,30.08,North,360,12.0,12.0,58,0.00,,---,0.00,VWS V14.01,2013-02-15 16:40:00,
2013-02-15 11:46:00,52.8,38.5,30.08,North,360,4.0,12.0,58,0.00,,---,0.00,VWS V14.01,2013-02-15 16:46:00,
2013-02-15 11:51:00,53.2,37.0,30.08,North,360,6.0,13.0,54,0.00,,---,0.00,VWS V14.01,2013-02-15 16:51:00,
2013-02-15 11:56:00,53.2,37.0,30.08,North,360,6.0,13.0,54,0.00,,---,0.00,VWS V14.01,2013-02-15 16:56:00,
2013-02-15 12:01:00,53.2,37.0,30.07,North,360,10.0,15.0,54,0.00,,---,0.00,VWS V14.01,2013-02-15 17:01:00,
2013-02-15 12:06:00,53.6,37.8,30.07,North,360,4.0,10.0,55,0.00,,---,0.00,VWS V14.01,2013-02-15 17:06:00,
2013-02-15 12:11:00,53.9,36.2,30.07,North,360,4.0,12.0,51,0.00,,---,0.00,VWS V14.01,2013-02-15 17:11:00,
2013-02-15 12:16:00,54.0,36.3,30.07,North,360,5.0,13.0,51,0.00,,---,0.00,VWS V14.01,2013-02-15 17:16:00,
2013-02-15 12:21:00,54.0,36.3,30.06,North,360,3.0,13.0,51,0.00,,---,0.00,VWS V14.01,2013-02-15 17:21:00,
2013-02-15 12:26:00,54.7,35.4,30.06,North,360,5.0,13.0,48,0.00,,---,0.00,VWS V14.01,2013-02-15 17:26:00,
2013-02-15 12:31:00,55.0,34.6,30.06,North,360,5.0,13.0,46,0.00,,---,0.00,VWS V14.01,2013-02-15 17:31:00,
2013-02-15 12:36:00,55.0,35.7,30.05,North,360,1.0,14.0,48,0.00,,---,0.00,VWS V14.01,2013-02-15 17:36:00,
2013-02-15 12:41:00,55.4,35.0,30.05,North,360,6.0,14.0,46,0.00,,---,0.00,VWS V14.01,2013-02-15 17:41:00,
2013-02-15 12:46:00,55.5,34.5,30.05,North,360,3.0,14.0,45,0.00,,---,0.00,VWS V14.01,2013-02-15 17:46:00,
2013-02-15 12:51:00,55.4,33.9,30.04,North,360,11.0,19.0,44,0.00,,---,0.00,VWS V14.01,2013-02-15 17:51:00,
2013-02-15 12:56:00,55.6,34.0,30.04,North,360,5.0,19.0,44,0.00,,---,0.00,VWS V14.01,2013-02-15 17:56:00,
2013-02-15 13:01:00,56.1,35.1,30.03,North,360,13.0,19.0,45,0.00,,---,0.00,VWS V14.01,2013-02-15 18:01:00,
2013-02-15 13:06:00,55.9,33.8,30.03,North,360,15.0,15.0,43,0.00,,---,0.00,VWS V14.01,2013-02-15 18:06:00,
2013-02-15 13:11:00,56.3,33.5,30.03,North,360,11.0,18.0,42,0.00,,---,0.00,VWS V14.01,2013-02-15 18:11:00,
2013-02-15 13:17:00,56.3,32.9,30.03,North,360,12.0,18.0,41,0.00,,---,0.00,VWS V14.01,2013-02-15 18:17:00,
2013-02-15 13:22:00,56.4,33.6,30.03,North,360,18.0,20.0,42,0.00,,---,0.00,VWS V14.01,2013-02-15 18:22:00,
2013-02-15 13:27:00,56.0,33.2,30.02,North,360,3.0,20.0,42,0.00,,---,0.00,VWS V14.01,2013-02-15 18:27:00,
2013-02-15 13:32:00,56.1,33.3,30.02,North,360,10.0,20.0,42,0.00,,---,0.00,VWS V14.01,2013-02-15 18:32:00,
2013-02-15 13:37:00,56.3,33.5,30.01,North,360,5.0,20.0,42,0.00,,---,0.00,VWS V14.01,2013-02-15 18:37:00,
2013-02-15 13:42:00,56.8,32.8,30.01,North,360,9.0,20.0,40,0.00,,---,0.00,VWS V14.01,2013-02-15 18:42:00,
2013-02-15 13:47:00,56.9,33.5,30.01,North,360,5.0,20.0,41,0.00,,---,0.00,VWS V14.01,2013-02-15 18:47:00,
2013-02-15 13:52:00,57.2,33.1,30.01,North,360,10.0,20.0,40,0.00,,---,0.00,VWS V14.01,2013-02-15 18:52:00,
2013-02-15 13:57:00,57.2,33.1,30.01,North,360,4.0,20.0,40,0.00,,---,0.00,VWS V14.01,2013-02-15 18:57:00,
2013-02-15 14:02:00,57.2,33.7,30.00,North,360,10.0,20.0,41,0.00,,---,0.00,VWS V14.01,2013-02-15 19:02:00,
2013-02-15 14:07:00,57.5,33.4,30.00,North,360,5.0,11.0,40,0.00,,---,0.00,VWS V14.01,2013-02-15 19:07:00,
2013-02-15 14:12:00,56.8,34.0,30.00,North,360,5.0,11.0,42,0.00,,---,0.00,VWS V14.01,2013-02-15 19:12:00,
2013-02-15 14:17:00,57.1,33.6,30.00,North,360,6.0,17.0,41,0.00,,---,0.00,VWS V14.01,2013-02-15 19:17:00,
2013-02-15 14:22:00,57.8,32.4,29.99,North,360,8.0,17.0,38,0.00,,---,0.00,VWS V14.01,2013-02-15 19:22:00,
2013-02-15 14:27:00,57.9,30.4,29.99,North,360,12.0,22.0,35,0.00,,---,0.00,VWS V14.01,2013-02-15 19:27:00,
2013-02-15 14:32:00,58.2,30.7,29.98,North,360,10.0,22.0,35,0.00,,---,0.00,VWS V14.01,2013-02-15 19:32:00,
2013-02-15 14:37:00,58.2,32.1,29.99,North,360,10.0,22.0,37,0.00,,---,0.00,VWS V14.01,2013-02-15 19:37:00,
2013-02-15 14:42:00,57.9,31.8,29.98,North,360,15.0,22.0,37,0.00,,---,0.00,VWS V14.01,2013-02-15 19:42:00,
2013-02-15 14:48:00,57.9,32.5,29.98,North,360,6.0,22.0,38,0.00,,---,0.00,VWS V14.01,2013-02-15 19:48:00,
2013-02-15 14:53:00,58.3,32.8,29.98,North,360,4.0,22.0,38,0.00,,---,0.00,VWS V14.01,2013-02-15 19:53:00,
2013-02-15 14:58:00,57.8,31.0,29.98,North,360,10.0,22.0,36,0.00,,---,0.00,VWS V14.01,2013-02-15 19:58:00,
2013-02-15 15:03:00,57.8,32.4,29.97,North,360,4.0,10.0,38,0.00,,---,0.00,VWS V14.01,2013-02-15 20:03:00,
2013-02-15 15:08:00,58.5,32.3,29.97,North,360,4.0,10.0,37,0.00,,---,0.00,VWS V14.01,2013-02-15 20:08:00,
2013-02-15 15:13:00,58.7,31.8,29.97,North,360,15.0,15.0,36,0.00,,---,0.00,VWS V14.01,2013-02-15 20:13:00,
2013-02-15 15:18:00,58.6,32.4,29.96,North,360,3.0,17.0,37,0.00,,---,0.00,VWS V14.01,2013-02-15 20:18:00,
2013-02-15 15:23:00,58.7,32.5,29.96,North,360,11.0,17.0,37,0.00,,---,0.00,VWS V14.01,2013-02-15 20:23:00,
2013-02-15 15:28:00,58.3,30.8,29.96,North,360,4.0,20.0,35,0.00,,---,0.00,VWS V14.01,2013-02-15 20:28:00,
2013-02-15 15:33:00,58.3,31.5,29.96,North,360,12.0,20.0,36,0.00,,---,0.00,VWS V14.01,2013-02-15 20:33:00,
2013-02-15 15:38:00,58.7,31.8,29.96,North,360,11.0,20.0,36,0.00,,---,0.00,VWS V14.01,2013-02-15 20:38:00,
2013-02-15 15:43:00,58.8,31.9,29.96,North,360,7.0,20.0,36,0.00,,---,0.00,VWS V14.01,2013-02-15 20:43:00,
2013-02-15 15:48:00,58.7,31.8,29.95,North,360,9.0,20.0,36,0.00,,---,0.00,VWS V14.01,2013-02-15 20:48:00,
2013-02-15 15:54:00,58.4,31.6,29.95,North,360,7.0,20.0,36,0.00,,---,0.00,VWS V14.01,2013-02-15 20:54:00,
2013-02-15 15:59:00,58.4,31.6,29.95,North,360,10.0,20.0,36,0.00,,---,0.00,VWS V14.01,2013-02-15 20:59:00,
2013-02-15 16:04:00,58.5,31.7,29.95,North,360,8.0,12.0,36,0.00,,---,0.00,VWS V14.01,2013-02-15 21:04:00,
2013-02-15 16:09:00,58.3,32.2,29.95,North,360,6.0,13.0,37,0.00,,---,0.00,VWS V14.01,2013-02-15 21:09:00,
2013-02-15 16:14:00,58.3,32.2,29.95,North,360,7.0,13.0,37,0.00,,---,0.00,VWS V14.01,2013-02-15 21:14:00,
2013-02-15 16:19:00,58.3,31.5,29.95,North,360,12.0,18.0,36,0.00,,---,0.00,VWS V14.01,2013-02-15 21:19:00,
2013-02-15 16:24:00,58.2,32.1,29.95,North,360,13.0,18.0,37,0.00,,---,0.00,VWS V14.01,2013-02-15 21:24:00,
2013-02-15 16:29:00,58.2,32.1,29.95,North,360,8.0,18.0,37,0.00,,---,0.00,VWS V14.01,2013-02-15 21:29:00,
2013-02-15 16:34:00,58.3,32.2,29.94,North,360,17.0,19.0,37,0.00,,---,0.00,VWS V14.01,2013-02-15 21:34:00,
2013-02-15 16:39:00,58.2,32.1,29.94,North,360,6.0,21.0,37,0.00,,---,0.00,VWS V14.01,2013-02-15 21:39:00,
2013-02-15 16:44:00,58.1,31.3,29.94,North,360,6.0,21.0,36,0.00,,---,0.00,VWS V14.01,2013-02-15 21:44:00,
2013-02-15 16:49:00,58.1,32.0,29.94,North,360,10.0,21.0,37,0.00,,---,0.00,VWS V14.01,2013-02-15 21:49:00,
2013-02-15 16:54:00,58.1,32.0,29.94,North,360,15.0,21.0,37,0.00,,---,0.00,VWS V14.01,2013-02-15 21:54:00,
2013-02-15 16:59:00,57.9,31.8,29.94,North,360,6.0,21.0,37,0.00,,---,0.00,VWS V14.01,2013-02-15 21:59:00,
2013-02-15 17:04:00,58.0,31.9,29.94,North,360,6.0,13.0,37,0.00,,---,0.00,VWS V14.01,2013-02-15 22:04:00,
2013-02-15 17:09:00,58.0,31.9,29.94,North,360,5.0,15.0,37,0.00,,---,0.00,VWS V14.01,2013-02-15 22:09:00,
2013-02-15 17:14:00,58.0,31.9,29.94,North,360,7.0,15.0,37,0.00,,---,0.00,VWS V14.01,2013-02-15 22:14:00,
2013-02-15 17:19:00,57.9,31.8,29.94,North,360,6.0,15.0,37,0.00,,---,0.00,VWS V14.01,2013-02-15 22:19:00,
2013-02-15 17:24:00,57.7,32.3,29.94,North,360,10.0,15.0,38,0.00,,---,0.00,VWS V14.01,2013-02-15 22:24:00,
2013-02-15 17:29:00,57.6,32.2,29.94,North,360,8.0,15.0,38,0.00,,---,0.00,VWS V14.01,2013-02-15 22:29:00,
2013-02-15 17:35:00,57.5,32.1,29.94,North,360,11.0,15.0,38,0.00,,---,0.00,VWS V14.01,2013-02-15 22:35:00,
2013-02-15 17:40:00,57.3,31.9,29.94,North,360,7.0,15.0,38,0.00,,---,0.00,VWS V14.01,2013-02-15 22:40:00,
2013-02-15 17:45:00,57.0,32.3,29.93,North,360,9.0,15.0,39,0.00,,---,0.00,VWS V14.01,2013-02-15 22:45:00,
2013-02-15 17:50:00,56.7,31.4,29.93,North,360,7.0,15.0,38,0.00,,---,0.00,VWS V14.01,2013-02-15 22:50:00,
2013-02-15 17:55:00,56.5,31.9,29.94,North,360,7.0,15.0,39,0.00,,---,0.00,VWS V14.01,2013-02-15 22:55:00,
2013-02-15 18:00:00,56.3,31.7,29.94,North,360,3.0,15.0,39,0.00,,---,0.00,VWS V14.01,2013-02-15 23:00:00,
2013-02-15 18:05:00,56.1,32.1,29.94,North,360,3.0,6.0,40,0.00,,---,0.00,VWS V14.01,2013-02-15 23:05:00,
2013-02-15 18:10:00,55.9,32.0,29.94,North,360,5.0,6.0,40,0.00,,---,0.00,VWS V14.01,2013-02-15 23:10:00,
2013-02-15 18:15:00,55.9,32.0,29.94,North,360,3.0,6.0,40,0.00,,---,0.00,VWS V14.01,2013-02-15 23:15:00,
2013-02-15 18:20:00,55.7,31.8,29.94,North,360,3.0,7.0,40,0.00,,---,0.00,VWS V14.01,2013-02-15 23:20:00,
2013-02-15 18:25:00,55.5,32.2,29.94,North,360,2.0,7.0,41,0.00,,---,0.00,VWS V14.01,2013-02-15 23:25:00,
2013-02-15 18:30:00,55.3,32.0,29.94,North,360,2.0,7.0,41,0.00,,---,0.00,VWS V14.01,2013-02-15 23:30:00,
2013-02-15 18:35:00,55.3,32.0,29.94,North,360,4.0,7.0,41,0.00,,---,0.00,VWS V14.01,2013-02-15 23:35:00,
2013-02-15 18:40:00,55.2,31.9,29.95,North,360,4.0,7.0,41,0.00,,---,0.00,VWS V14.01,2013-02-15 23:40:00,
2013-02-15 18:45:00,55.1,31.8,29.94,North,360,4.0,7.0,41,0.00,,---,0.00,VWS V14.01,2013-02-15 23:45:00,
2013-02-15 18:50:00,54.8,32.2,29.95,North,360,3.0,7.0,42,0.00,,---,0.00,VWS V14.01,2013-02-15 23:50:00,
2013-02-15 18:56:00,54.7,32.1,29.95,North,360,3.0,7.0,42,0.00,,---,0.00,VWS V14.01,2013-02-15 23:56:00,
2013-02-15 19:01:00,54.6,32.0,29.94,North,360,3.0,7.0,42,0.00,,---,0.00,VWS V14.01,2013-02-16 00:01:00,
2013-02-15 19:06:00,54.6,32.0,29.95,North,360,2.0,6.0,42,0.00,,---,0.00,VWS V14.01,2013-02-16 00:06:00,
2013-02-15 19:11:00,54.6,32.0,29.95,North,360,3.0,6.0,42,0.00,,---,0.00,VWS V14.01,2013-02-16 00:11:00,
2013-02-15 19:16:00,54.5,31.9,29.95,North,360,5.0,6.0,42,0.00,,---,0.00,VWS V14.01,2013-02-16 00:16:00,
2013-02-15 19:21:00,54.5,31.9,29.95,North,360,3.0,6.0,42,0.00,,---,0.00,VWS V14.01,2013-02-16 00:21:00,
2013-02-15 19:26:00,54.4,31.8,29.95,North,360,3.0,6.0,42,0.00,,---,0.00,VWS V14.01,2013-02-16 00:26:00,
2013-02-15 19:31:00,54.4,31.8,29.95,North,360,4.0,6.0,42,0.00,,---,0.00,VWS V14.01,2013-02-16 00:31:00,
2013-02-15 19:36:00,54.3,31.7,29.95,North,360,2.0,6.0,42,0.00,,---,0.00,VWS V14.01,2013-02-16 00:36:00,
2013-02-15 19:41:00,54.2,32.2,29.95,North,360,3.0,6.0,43,0.00,,---,0.00,VWS V14.01,2013-02-16 00:41:00,
2013-02-15 19:46:00,54.0,32.0,29.95,North,360,4.0,6.0,43,0.00,,---,0.00,VWS V14.01,2013-02-16 00:46:00,
2013-02-15 19:51:00,54.0,32.0,29.94,North,360,2.0,6.0,43,0.00,,---,0.00,VWS V14.01,2013-02-16 00:51:00,
2013-02-15 19:56:00,54.0,32.0,29.95,North,360,3.0,6.0,43,0.00,,---,0.00,VWS V14.01,2013-02-16 00:56:00,
2013-02-15 20:01:00,54.0,32.0,29.95,North,360,6.0,7.0,43,0.00,,---,0.00,VWS V14.01,2013-02-16 01:01:00,
2013-02-15 20:06:00,54.1,32.7,29.95,North,360,6.0,8.0,44,0.00,,---,0.00,VWS V14.01,2013-02-16 01:06:00,
2013-02-15 20:11:00,54.0,32.0,29.96,North,360,6.0,11.0,43,0.00,,---,0.00,VWS V14.01,2013-02-16 01:11:00,
2013-02-15 20:16:00,53.8,32.4,29.96,North,360,3.0,11.0,44,0.00,,---,0.00,VWS V14.01,2013-02-16 01:16:00,
2013-02-15 20:21:00,53.6,32.2,29.96,North,360,3.0,11.0,44,0.00,,---,0.00,VWS V14.01,2013-02-16 01:21:00,
2013-02-15 20:27:00,53.5,32.7,29.96,North,360,0.0,11.0,45,0.00,,---,0.00,VWS V14.01,2013-02-16 01:27:00,
2013-02-15 20:32:00,53.3,32.5,29.96,North,360,3.0,11.0,45,0.00,,---,0.00,VWS V14.01,2013-02-16 01:32:00,
2013-02-15 20:37:00,53.2,32.4,29.96,North,360,3.0,11.0,45,0.00,,---,0.00,VWS V14.01,2013-02-16 01:37:00,
2013-02-15 20:42:00,53.3,33.1,29.96,North,360,4.0,11.0,46,0.00,,---,0.00,VWS V14.01,2013-02-16 01:42:00,
2013-02-15 20:47:00,53.4,33.7,29.96,North,360,2.0,11.0,47,0.00,,---,0.00,VWS V14.01,2013-02-16 01:47:00,
2013-02-15 20:52:00,53.4,34.2,29.96,North,360,3.0,11.0,48,0.00,,---,0.00,VWS V14.01,2013-02-16 01:52:00,
2013-02-15 20:57:00,53.4,34.7,29.97,North,360,5.0,12.0,49,0.00,,---,0.00,VWS V14.01,2013-02-16 01:57:00,
2013-02-15 21:02:00,53.2,35.6,29.97,North,360,4.0,12.0,51,0.00,,---,0.00,VWS V14.01,2013-02-16 02:02:00,
2013-02-15 21:07:00,52.6,38.3,29.97,North,360,20.0,26.0,58,0.00,,---,0.00,VWS V14.01,2013-02-16 02:07:00,
2013-02-15 21:12:00,50.8,38.7,29.98,North,360,16.0,26.0,63,0.00,,---,0.00,VWS V14.01,2013-02-16 02:12:00,
2013-02-15 21:17:00,49.7,38.8,29.99,North,360,11.0,26.0,66,0.00,,---,0.00,VWS V14.01,2013-02-16 02:17:00,
2013-02-15 21:22:00,49.2,38.7,29.99,North,360,15.0,26.0,67,0.00,,---,0.00,VWS V14.01,2013-02-16 02:22:00,
2013-02-15 21:28:00,48.7,38.6,29.99,North,360,19.0,26.0,68,0.00,,---,0.00,VWS V14.01,2013-02-16 02:28:00,
2013-02-15 21:33:00,48.3,39.0,29.99,North,360,13.0,26.0,70,0.00,,---,0.00,VWS V14.01,2013-02-16 02:33:00,
2013-02-15 21:38:00,48.1,39.2,29.99,North,360,6.0,26.0,71,0.00,,---,0.00,VWS V14.01,2013-02-16 02:38:00,
2013-02-15 21:43:00,47.7,39.1,29.99,North,360,12.0,26.0,72,0.00,,---,0.00,VWS V14.01,2013-02-16 02:43:00,
2013-02-15 21:48:00,46.8,38.3,29.99,North,360,10.0,26.0,72,0.00,,---,0.00,VWS V14.01,2013-02-16 02:48:00,
2013-02-15 21:53:00,46.1,37.6,30.00,North,360,9.0,26.0,72,0.00,,---,0.00,VWS V14.01,2013-02-16 02:53:00,
2013-02-15 21:58:00,45.5,36.7,30.00,North,360,12.0,26.0,71,0.00,,---,0.00,VWS V14.01,2013-02-16 02:58:00,
2013-02-15 22:03:00,45.0,36.2,30.00,North,360,13.0,17.0,71,0.00,,---,0.00,VWS V14.01,2013-02-16 03:03:00,
2013-02-15 22:08:00,44.8,36.0,30.00,North,360,10.0,17.0,71,0.00,,---,0.00,VWS V14.01,2013-02-16 03:08:00,
2013-02-15 22:13:00,44.6,36.2,30.01,North,360,4.0,17.0,72,0.00,,---,0.00,VWS V14.01,2013-02-16 03:13:00,
2013-02-15 22:18:00,44.3,35.5,30.01,North,360,17.0,20.0,71,0.00,,---,0.00,VWS V14.01,2013-02-16 03:18:00,
2013-02-15 22:23:00,44.0,35.2,30.01,North,360,13.0,20.0,71,0.00,,---,0.00,VWS V14.01,2013-02-16 03:23:00,
2013-02-15 22:28:00,43.7,34.9,30.01,North,360,17.0,20.0,71,0.00,,---,0.00,VWS V14.01,2013-02-16 03:28:00,
2013-02-15 22:33:00,43.5,34.7,30.01,North,360,9.0,20.0,71,0.00,,---,0.00,VWS V14.01,2013-02-16 03:33:00,
2013-02-15 22:38:00,43.2,34.8,30.00,North,360,6.0,20.0,72,0.00,,---,0.00,VWS V14.01,2013-02-16 03:38:00,
2013-02-15 22:43:00,43.1,34.7,30.00,North,360,7.0,20.0,72,0.00,,---,0.00,VWS V14.01,2013-02-16 03:43:00,
2013-02-15 22:49:00,43.0,34.6,30.00,North,360,15.0,20.0,72,0.00,,---,0.00,VWS V14.01,2013-02-16 03:49:00,
2013-02-15 22:54:00,42.9,34.5,30.00,North,360,10.0,20.0,72,0.00,,---,0.00,VWS V14.01,2013-02-16 03:54:00,
2013-02-15 22:59:00,42.9,34.5,30.00,North,360,7.0,20.0,72,0.00,,---,0.00,VWS V14.01,2013-02-16 03:59:00,
2013-02-15 23:04:00,42.7,34.3,30.00,North,360,11.0,13.0,72,0.00,,---,0.00,VWS V14.01,2013-02-16 04:04:00,
2013-02-15 23:09:00,42.5,34.1,30.00,North,360,10.0,13.0,72,0.00,,---,0.00,VWS V14.01,2013-02-16 04:09:00,
2013-02-15 23:14:00,42.4,34.0,30.00,North,360,6.0,15.0,72,0.00,,---,0.00,VWS V14.01,2013-02-16 04:14:00,
2013-02-15 23:19:00,42.3,33.9,29.99,North,360,4.0,15.0,72,0.00,,---,0.00,VWS V14.01,2013-02-16 04:19:00,
2013-02-15 23:24:00,42.2,33.8,29.99,North,360,5.0,15.0,72,0.00,,---,0.00,VWS V14.01,2013-02-16 04:24:00,
2013-02-15 23:29:00,42.0,34.0,29.99,North,360,5.0,15.0,73,0.00,,---,0.00,VWS V14.01,2013-02-16 04:29:00,
2013-02-15 23:34:00,41.8,33.5,30.00,North,360,9.0,15.0,72,0.00,,---,0.00,VWS V14.01,2013-02-16 04:34:00,
2013-02-15 23:39:00,41.8,33.5,29.99,North,360,9.0,15.0,72,0.00,,---,0.00,VWS V14.01,2013-02-16 04:39:00,
2013-02-15 23:44:00,41.8,33.5,29.99,North,360,6.0,15.0,72,0.00,,---,0.00,VWS V14.01,2013-02-16 04:44:00,
2013-02-15 23:49:00,41.8,33.5,29.99,North,360,7.0,15.0,72,0.00,,---,0.00,VWS V14.01,2013-02-16 04:49:00,
2013-02-15 23:54:00,41.8,33.1,29.99,North,360,9.0,15.0,71,0.00,,---,0.00,VWS V14.01,2013-02-16 04:54:00,